Year,Month,Day,Hour,Minute,Value (Times are PST for temperature in C)
2020,02,03,00,00,1.70
2020,02,03,00,01,1.70
2020,02,03,00,02,1.70
2020,02,03,00,03,1.70
2020,02,03,00,04,1.70
2020,02,03,00,05,1.70
2020,02,03,00,06,1.70
2020,02,03,00,07,1.70
2020,02,03,00,08,1.70
2020,02,03,00,09,1.70
2020,02,03,00,10,1.70
2020,02,03,00,11,1.60
2020,02,03,00,12,1.60
2020,02,03,00,13,1.60
2020,02,03,00,14,1.60
2020,02,03,00,15,1.60
2020,02,03,00,16,1.60
2020,02,03,00,17,1.60
2020,02,03,00,18,1.60
2020,02,03,00,19,1.60
2020,02,03,00,20,1.60
2020,02,03,00,21,1.60
2020,02,03,00,22,1.60
2020,02,03,00,23,1.60
2020,02,03,00,24,1.60
2020,02,03,00,25,1.60
2020,02,03,00,26,1.60
2020,02,03,00,27,1.60
2020,02,03,00,28,1.60
2020,02,03,00,29,1.60
2020,02,03,00,30,1.70
2020,02,03,00,31,1.70
2020,02,03,00,32,1.70
2020,02,03,00,33,1.70
2020,02,03,00,34,1.70
2020,02,03,00,35,1.70
2020,02,03,00,36,1.70
2020,02,03,00,37,1.70
2020,02,03,00,38,1.70
2020,02,03,00,39,1.70
2020,02,03,00,40,1.70
2020,02,03,00,41,1.70
2020,02,03,00,42,1.70
2020,02,03,00,43,1.70
2020,02,03,00,44,1.70
2020,02,03,00,45,1.70
2020,02,03,00,46,1.70
2020,02,03,00,47,1.70
2020,02,03,00,48,1.70
2020,02,03,00,49,1.70
2020,02,03,00,50,1.70
2020,02,03,00,51,1.70
2020,02,03,00,52,1.70
2020,02,03,00,53,1.60
2020,02,03,00,54,1.70
2020,02,03,00,55,1.70
2020,02,03,00,56,1.70
2020,02,03,00,57,1.70
2020,02,03,00,58,1.70
2020,02,03,00,59,1.70
2020,02,03,01,00,1.70
2020,02,03,01,01,1.70
2020,02,03,01,02,1.70
2020,02,03,01,03,1.70
2020,02,03,01,04,1.70
2020,02,03,01,05,1.70
2020,02,03,01,06,1.70
2020,02,03,01,07,1.70
2020,02,03,01,08,1.70
2020,02,03,01,09,1.70
2020,02,03,01,10,1.70
2020,02,03,01,11,1.70
2020,02,03,01,12,1.70
2020,02,03,01,13,1.70
2020,02,03,01,14,1.70
2020,02,03,01,15,1.70
2020,02,03,01,16,1.70
2020,02,03,01,17,1.70
2020,02,03,01,18,1.70
2020,02,03,01,19,1.70
2020,02,03,01,20,1.70
2020,02,03,01,21,1.70
2020,02,03,01,22,1.70
2020,02,03,01,23,1.70
2020,02,03,01,24,1.70
2020,02,03,01,25,1.70
2020,02,03,01,26,1.70
2020,02,03,01,27,1.80
2020,02,03,01,28,1.80
2020,02,03,01,29,1.80
2020,02,03,01,30,1.80
2020,02,03,01,31,1.80
2020,02,03,01,32,1.80
2020,02,03,01,33,1.80
2020,02,03,01,34,1.80
2020,02,03,01,35,1.80
2020,02,03,01,36,1.80
2020,02,03,01,37,1.80
2020,02,03,01,38,1.80
2020,02,03,01,39,1.80
2020,02,03,01,40,1.80
2020,02,03,01,41,1.80
2020,02,03,01,42,1.80
2020,02,03,01,43,1.80
2020,02,03,01,44,1.80
2020,02,03,01,45,1.80
2020,02,03,01,46,1.80
2020,02,03,01,47,1.80
2020,02,03,01,48,1.80
2020,02,03,01,49,1.70
2020,02,03,01,50,1.70
2020,02,03,01,51,1.70
2020,02,03,01,52,1.70
2020,02,03,01,53,1.70
2020,02,03,01,54,1.70
2020,02,03,01,55,1.70
2020,02,03,01,56,1.60
2020,02,03,01,57,1.60
2020,02,03,01,58,1.60
2020,02,03,01,59,1.60
2020,02,03,02,00,1.60
2020,02,03,02,01,1.50
2020,02,03,02,02,1.50
2020,02,03,02,03,1.50
2020,02,03,02,04,1.40
2020,02,03,02,05,1.40
2020,02,03,02,06,1.40
2020,02,03,02,07,1.40
2020,02,03,02,08,1.30
2020,02,03,02,09,1.30
2020,02,03,02,10,1.30
2020,02,03,02,11,1.30
2020,02,03,02,12,1.30
2020,02,03,02,13,1.20
2020,02,03,02,14,1.20
2020,02,03,02,15,1.20
2020,02,03,02,16,1.20
2020,02,03,02,17,1.20
2020,02,03,02,18,1.20
2020,02,03,02,19,1.10
2020,02,03,02,20,1.10
2020,02,03,02,21,1.10
2020,02,03,02,22,1.10
2020,02,03,02,23,1.10
2020,02,03,02,24,1.10
2020,02,03,02,25,1.10
2020,02,03,02,26,1.10
2020,02,03,02,27,1.00
2020,02,03,02,28,1.00
2020,02,03,02,29,1.00
2020,02,03,02,30,1.00
2020,02,03,02,31,0.90
2020,02,03,02,32,0.90
2020,02,03,02,33,0.90
2020,02,03,02,34,0.90
2020,02,03,02,35,0.90
2020,02,03,02,36,0.90
2020,02,03,02,37,0.90
2020,02,03,02,38,0.90
2020,02,03,02,39,0.90
2020,02,03,02,40,0.90
2020,02,03,02,41,0.90
2020,02,03,02,42,0.90
2020,02,03,02,43,0.90
2020,02,03,02,44,0.90
2020,02,03,02,45,0.90
2020,02,03,02,46,0.90
2020,02,03,02,47,0.90
2020,02,03,02,48,0.90
2020,02,03,02,49,0.90
2020,02,03,02,50,1.00
2020,02,03,02,51,1.00
2020,02,03,02,52,1.00
2020,02,03,02,53,1.00
2020,02,03,02,54,1.00
2020,02,03,02,55,1.10
2020,02,03,02,56,1.10
2020,02,03,02,57,1.10
2020,02,03,02,58,1.00
2020,02,03,02,59,1.10
2020,02,03,03,00,1.00
2020,02,03,03,01,1.00
2020,02,03,03,02,1.00
2020,02,03,03,03,1.00
2020,02,03,03,04,1.00
2020,02,03,03,05,1.00
2020,02,03,03,06,0.90
2020,02,03,03,07,0.90
2020,02,03,03,08,0.90
2020,02,03,03,09,0.90
2020,02,03,03,10,0.80
2020,02,03,03,11,0.80
2020,02,03,03,12,0.80
2020,02,03,03,13,0.80
2020,02,03,03,14,0.70
2020,02,03,03,15,0.70
2020,02,03,03,16,0.70
2020,02,03,03,17,0.70
2020,02,03,03,18,0.60
2020,02,03,03,19,0.60
2020,02,03,03,20,0.60
2020,02,03,03,21,0.60
2020,02,03,03,22,0.50
2020,02,03,03,23,0.50
2020,02,03,03,24,0.50
2020,02,03,03,25,0.50
2020,02,03,03,26,0.40
2020,02,03,03,27,0.40
2020,02,03,03,28,0.40
2020,02,03,03,29,0.40
2020,02,03,03,30,0.40
2020,02,03,03,31,0.30
2020,02,03,03,32,0.30
2020,02,03,03,33,0.30
2020,02,03,03,34,0.30
2020,02,03,03,35,0.30
2020,02,03,03,36,0.30
2020,02,03,03,37,0.30
2020,02,03,03,38,0.30
2020,02,03,03,39,0.20
2020,02,03,03,40,0.20
2020,02,03,03,41,0.20
2020,02,03,03,42,0.20
2020,02,03,03,43,0.10
2020,02,03,03,44,0.10
2020,02,03,03,45,0.10
2020,02,03,03,46,0.10
2020,02,03,03,47,0.10
2020,02,03,03,48,0.10
2020,02,03,03,49,0.10
2020,02,03,03,50,0.10
2020,02,03,03,51,0.10
2020,02,03,03,52,0.10
2020,02,03,03,53,0.00
2020,02,03,03,54,0.00
2020,02,03,03,55,0.00
2020,02,03,03,56,0.00
2020,02,03,03,57,0.00
2020,02,03,03,58,0.00
2020,02,03,03,59,0.00
2020,02,03,04,00,-0.10
2020,02,03,04,01,-0.10
2020,02,03,04,02,-0.10
2020,02,03,04,03,-0.10
2020,02,03,04,04,-0.10
2020,02,03,04,05,-0.10
2020,02,03,04,06,-0.10
2020,02,03,04,07,-0.10
2020,02,03,04,08,-0.10
2020,02,03,04,09,-0.10
2020,02,03,04,10,-0.10
2020,02,03,04,11,-0.20
2020,02,03,04,12,-0.20
2020,02,03,04,13,-0.20
2020,02,03,04,14,-0.20
2020,02,03,04,15,-0.20
2020,02,03,04,16,-0.20
2020,02,03,04,17,-0.20
2020,02,03,04,18,-0.20
2020,02,03,04,19,-0.20
2020,02,03,04,20,-0.20
2020,02,03,04,21,-0.30
2020,02,03,04,22,-0.30
2020,02,03,04,23,-0.30
2020,02,03,04,24,-0.30
2020,02,03,04,25,-0.30
2020,02,03,04,26,-0.30
2020,02,03,04,27,-0.30
2020,02,03,04,28,-0.30
2020,02,03,04,29,-0.40
2020,02,03,04,30,-0.40
2020,02,03,04,31,-0.40
2020,02,03,04,32,-0.40
2020,02,03,04,33,-0.40
2020,02,03,04,34,-0.50
2020,02,03,04,35,-0.50
2020,02,03,04,36,-0.50
2020,02,03,04,37,-0.50
2020,02,03,04,38,-0.50
2020,02,03,04,39,-0.60
2020,02,03,04,40,-0.60
2020,02,03,04,41,-0.60
2020,02,03,04,42,-0.60
2020,02,03,04,43,-0.50
2020,02,03,04,44,-0.50
2020,02,03,04,45,-0.50
2020,02,03,04,46,-0.50
2020,02,03,04,47,-0.60
2020,02,03,04,48,-0.50
2020,02,03,04,49,-0.50
2020,02,03,04,50,-0.60
2020,02,03,04,51,-0.60
2020,02,03,04,52,-0.60
2020,02,03,04,53,-0.60
2020,02,03,04,54,-0.60
2020,02,03,04,55,-0.60
2020,02,03,04,56,-0.70
2020,02,03,04,57,-0.70
2020,02,03,04,58,-0.70
2020,02,03,04,59,-0.70
2020,02,03,05,00,-0.70
2020,02,03,05,01,-0.70
2020,02,03,05,02,-0.70
2020,02,03,05,03,-0.70
2020,02,03,05,04,-0.70
2020,02,03,05,05,-0.70
2020,02,03,05,06,-0.70
2020,02,03,05,07,-0.70
2020,02,03,05,08,-0.80
2020,02,03,05,09,-0.80
2020,02,03,05,10,-0.80
2020,02,03,05,11,-0.80
2020,02,03,05,12,-0.80
2020,02,03,05,13,-0.80
2020,02,03,05,14,-0.80
2020,02,03,05,15,-0.80
2020,02,03,05,16,-0.90
2020,02,03,05,17,-0.90
2020,02,03,05,18,-0.90
2020,02,03,05,19,-0.90
2020,02,03,05,20,-0.90
2020,02,03,05,21,-0.90
2020,02,03,05,22,-0.90
2020,02,03,05,23,-0.90
2020,02,03,05,24,-0.90
2020,02,03,05,25,-0.90
2020,02,03,05,26,-0.90
2020,02,03,05,27,-0.90
2020,02,03,05,28,-0.90
2020,02,03,05,29,-0.90
2020,02,03,05,30,-0.90
2020,02,03,05,31,-0.90
2020,02,03,05,32,-0.90
2020,02,03,05,33,-0.90
2020,02,03,05,34,-0.90
2020,02,03,05,35,-0.90
2020,02,03,05,36,-0.90
2020,02,03,05,37,-0.90
2020,02,03,05,38,-0.90
2020,02,03,05,39,-0.90
2020,02,03,05,40,-0.90
2020,02,03,05,41,-0.90
2020,02,03,05,42,-0.90
2020,02,03,05,43,-0.90
2020,02,03,05,44,-0.90
2020,02,03,05,45,-0.90
2020,02,03,05,46,-0.90
2020,02,03,05,47,-0.90
2020,02,03,05,48,-0.90
2020,02,03,05,49,-0.90
2020,02,03,05,50,-0.90
2020,02,03,05,51,-0.90
2020,02,03,05,52,-0.90
2020,02,03,05,53,-0.90
2020,02,03,05,54,-0.90
2020,02,03,05,55,-0.90
2020,02,03,05,56,-0.90
2020,02,03,05,57,-0.90
2020,02,03,05,58,-1.00
2020,02,03,05,59,-1.00
2020,02,03,06,00,-1.00
2020,02,03,06,01,-1.00
2020,02,03,06,02,-1.00
2020,02,03,06,03,-1.00
2020,02,03,06,04,-1.00
2020,02,03,06,05,-1.00
2020,02,03,06,06,-1.00
2020,02,03,06,07,-1.00
2020,02,03,06,08,-1.00
2020,02,03,06,09,-1.00
2020,02,03,06,10,-0.90
2020,02,03,06,11,-0.90
2020,02,03,06,12,-0.90
2020,02,03,06,13,-0.90
2020,02,03,06,14,-0.90
2020,02,03,06,15,-0.90
2020,02,03,06,16,-0.90
2020,02,03,06,17,-0.90
2020,02,03,06,18,-0.90
2020,02,03,06,19,-0.90
2020,02,03,06,20,-0.90
2020,02,03,06,21,-0.90
2020,02,03,06,22,-0.90
2020,02,03,06,23,-1.00
2020,02,03,06,24,-1.00
2020,02,03,06,25,-1.00
2020,02,03,06,26,-1.00
2020,02,03,06,27,-1.10
2020,02,03,06,28,-1.10
2020,02,03,06,29,-1.10
2020,02,03,06,30,-1.10
2020,02,03,06,31,-1.10
2020,02,03,06,32,-1.10
2020,02,03,06,33,-1.10
2020,02,03,06,34,-1.10
2020,02,03,06,35,-1.10
2020,02,03,06,36,-1.10
2020,02,03,06,37,-1.10
2020,02,03,08,18,-0.30
2020,02,03,08,19,-0.30
2020,02,03,08,20,-0.30
2020,02,03,08,21,-0.30
2020,02,03,08,22,-0.40
2020,02,03,08,23,-0.40
2020,02,03,08,24,-0.40
2020,02,03,08,25,-0.40
2020,02,03,08,26,-0.40
2020,02,03,08,27,-0.40
2020,02,03,08,28,-0.40
2020,02,03,08,29,-0.40
2020,02,03,08,30,-0.40
2020,02,03,08,31,-0.40
2020,02,03,08,32,-0.40
2020,02,03,08,33,-0.40
2020,02,03,08,34,-0.30
2020,02,03,08,35,-0.30
2020,02,03,08,36,-0.30
2020,02,03,08,37,-0.30
2020,02,03,08,38,-0.30
2020,02,03,08,39,-0.30
2020,02,03,08,40,-0.30
2020,02,03,08,41,-0.30
2020,02,03,08,42,-0.20
2020,02,03,08,43,-0.20
2020,02,03,08,44,-0.20
2020,02,03,08,45,-0.10
2020,02,03,08,46,0.00
2020,02,03,08,47,0.10
2020,02,03,08,48,0.20
2020,02,03,08,49,0.40
2020,02,03,08,50,0.50
2020,02,03,08,51,0.60
2020,02,03,08,52,0.80
2020,02,03,08,53,0.90
2020,02,03,08,54,1.00
2020,02,03,08,55,1.20
2020,02,03,08,56,1.40
2020,02,03,08,57,1.60
2020,02,03,08,58,1.70
2020,02,03,08,59,1.90
2020,02,03,09,00,1.90
2020,02,03,09,01,1.90
2020,02,03,09,02,2.00
2020,02,03,09,03,2.00
2020,02,03,09,04,2.10
2020,02,03,09,05,2.20
2020,02,03,09,06,2.30
2020,02,03,09,07,2.40
2020,02,03,09,08,2.50
2020,02,03,09,09,2.60
2020,02,03,09,10,2.60
2020,02,03,09,11,2.50
2020,02,03,09,12,2.40
2020,02,03,09,13,2.40
2020,02,03,09,14,2.30
2020,02,03,09,15,2.20
2020,02,03,09,16,2.10
2020,02,03,09,17,2.10
2020,02,03,09,18,2.20
2020,02,03,09,19,2.20
2020,02,03,09,20,2.20
2020,02,03,09,21,2.30
2020,02,03,09,22,2.40
2020,02,03,09,23,2.50
2020,02,03,09,24,2.60
2020,02,03,09,25,2.70
2020,02,03,09,26,2.80
2020,02,03,09,27,2.80
2020,02,03,09,28,2.80
2020,02,03,09,29,2.80
2020,02,03,09,30,2.70
2020,02,03,09,31,2.70
2020,02,03,09,32,2.70
2020,02,03,09,33,2.70
2020,02,03,09,34,2.70
2020,02,03,09,35,2.70
2020,02,03,09,36,2.80
2020,02,03,09,37,2.80
2020,02,03,09,38,3.00
2020,02,03,09,39,3.10
2020,02,03,09,40,3.10
2020,02,03,09,41,3.10
2020,02,03,09,42,3.10
2020,02,03,09,43,3.10
2020,02,03,09,44,3.10
2020,02,03,09,45,3.10
2020,02,03,09,46,3.20
2020,02,03,09,47,3.20
2020,02,03,09,48,3.20
2020,02,03,09,49,3.20
2020,02,03,09,50,3.20
2020,02,03,09,51,3.20
2020,02,03,09,52,3.20
2020,02,03,09,53,3.20
2020,02,03,09,54,3.30
2020,02,03,09,55,3.40
2020,02,03,09,56,3.60
2020,02,03,09,57,3.60
2020,02,03,09,58,3.70
2020,02,03,09,59,3.80
2020,02,03,10,00,3.80
2020,02,03,10,01,3.80
2020,02,03,10,02,3.90
2020,02,03,10,03,3.90
2020,02,03,10,04,3.90
2020,02,03,10,05,4.00
2020,02,03,10,06,4.10
2020,02,03,10,07,4.20
2020,02,03,10,08,4.30
2020,02,03,10,09,4.40
2020,02,03,10,10,4.50
2020,02,03,10,11,4.50
2020,02,03,10,12,4.50
2020,02,03,10,13,4.60
2020,02,03,10,14,4.60
2020,02,03,10,15,4.50
2020,02,03,10,16,4.50
2020,02,03,10,17,4.50
2020,02,03,10,18,4.50
2020,02,03,10,19,4.40
2020,02,03,10,20,4.30
2020,02,03,10,21,4.20
2020,02,03,10,22,4.10
2020,02,03,10,23,4.10
2020,02,03,10,24,4.00
2020,02,03,10,25,4.00
2020,02,03,10,26,3.90
2020,02,03,10,27,3.90
2020,02,03,10,28,3.90
2020,02,03,10,29,3.80
2020,02,03,10,30,3.80
2020,02,03,10,31,3.80
2020,02,03,10,32,3.80
2020,02,03,10,33,3.80
2020,02,03,10,34,3.80
2020,02,03,10,35,3.80
2020,02,03,10,36,3.80
2020,02,03,10,37,3.80
2020,02,03,10,38,3.80
2020,02,03,10,39,3.70
2020,02,03,10,40,3.70
2020,02,03,10,41,3.70
2020,02,03,10,42,3.70
2020,02,03,10,43,3.70
2020,02,03,10,44,3.70
2020,02,03,10,45,3.70
2020,02,03,10,46,3.70
2020,02,03,10,47,3.70
2020,02,03,10,48,3.70
2020,02,03,10,49,3.70
2020,02,03,10,50,3.60
2020,02,03,10,51,3.60
2020,02,03,10,52,3.60
2020,02,03,10,53,3.70
2020,02,03,10,54,3.70
2020,02,03,10,55,3.70
2020,02,03,10,56,3.70
2020,02,03,10,57,3.70
2020,02,03,10,58,3.70
2020,02,03,10,59,3.60
2020,02,03,11,00,3.60
2020,02,03,11,01,3.60
2020,02,03,11,02,3.50
2020,02,03,11,03,3.50
2020,02,03,11,04,3.50
2020,02,03,11,05,3.50
2020,02,03,11,06,3.50
2020,02,03,11,07,3.50
2020,02,03,11,08,3.50
2020,02,03,11,09,3.40
2020,02,03,11,10,3.40
2020,02,03,11,11,3.40
2020,02,03,11,12,3.40
2020,02,03,11,13,3.40
2020,02,03,11,14,3.40
2020,02,03,11,15,3.40
2020,02,03,11,16,3.40
2020,02,03,11,17,3.40
2020,02,03,11,18,3.40
2020,02,03,11,19,3.40
2020,02,03,11,20,3.50
2020,02,03,11,21,3.50
2020,02,03,11,22,3.50
2020,02,03,11,23,3.60
2020,02,03,11,24,3.60
2020,02,03,11,25,3.60
2020,02,03,11,26,3.60
2020,02,03,11,27,3.70
2020,02,03,11,28,3.70
2020,02,03,11,29,3.80
2020,02,03,11,30,3.90
2020,02,03,11,31,4.00
2020,02,03,11,32,4.10
2020,02,03,11,33,4.10
2020,02,03,11,34,4.20
2020,02,03,11,35,4.30
2020,02,03,11,36,4.30
2020,02,03,11,37,4.30
2020,02,03,11,38,4.40
2020,02,03,11,39,4.40
2020,02,03,11,40,4.50
2020,02,03,11,41,4.50
2020,02,03,11,42,4.50
2020,02,03,11,43,4.60
2020,02,03,11,44,4.60
2020,02,03,11,45,4.60
2020,02,03,11,46,4.60
2020,02,03,11,47,4.60
2020,02,03,11,48,4.60
2020,02,03,11,49,4.60
2020,02,03,11,50,4.60
2020,02,03,11,51,4.60
2020,02,03,11,52,4.70
2020,02,03,11,53,4.70
2020,02,03,11,54,4.70
2020,02,03,11,55,4.70
2020,02,03,11,56,4.70
2020,02,03,11,57,4.70
2020,02,03,11,58,4.70
2020,02,03,11,59,4.70
2020,02,03,12,00,4.70
2020,02,03,12,01,4.70
2020,02,03,12,02,4.70
2020,02,03,12,03,4.70
2020,02,03,12,04,4.70
2020,02,03,12,05,4.70
2020,02,03,12,06,4.70
2020,02,03,12,07,4.60
2020,02,03,12,08,4.60
2020,02,03,12,09,4.60
2020,02,03,12,10,4.60
2020,02,03,12,11,4.60
2020,02,03,12,12,4.60
2020,02,03,12,13,4.60
2020,02,03,12,14,4.60
2020,02,03,12,15,4.50
2020,02,03,12,16,4.50
2020,02,03,12,17,4.50
2020,02,03,12,18,4.50
2020,02,03,12,19,4.40
2020,02,03,12,20,4.50
2020,02,03,12,21,4.50
2020,02,03,12,22,4.50
2020,02,03,12,23,4.50
2020,02,03,12,24,4.60
2020,02,03,12,25,4.60
2020,02,03,12,26,4.70
2020,02,03,12,27,4.70
2020,02,03,12,28,4.70
2020,02,03,12,29,4.70
2020,02,03,12,30,4.70
2020,02,03,12,31,4.80
2020,02,03,12,32,4.80
2020,02,03,12,33,4.80
2020,02,03,12,34,4.80
2020,02,03,12,35,4.80
2020,02,03,12,36,4.80
2020,02,03,12,37,4.90
2020,02,03,12,38,4.90
2020,02,03,12,39,4.90
2020,02,03,12,40,4.90
2020,02,03,12,41,4.90
2020,02,03,12,42,5.00
2020,02,03,12,43,5.00
2020,02,03,12,44,5.10
2020,02,03,12,45,5.10
2020,02,03,12,46,5.10
2020,02,03,12,47,5.10
2020,02,03,12,48,5.10
2020,02,03,12,49,5.10
2020,02,03,12,50,5.10
2020,02,03,12,51,5.10
2020,02,03,12,52,5.00
2020,02,03,12,53,5.00
2020,02,03,12,54,5.00
2020,02,03,12,55,5.00
2020,02,03,12,56,5.10
2020,02,03,12,57,5.10
2020,02,03,12,58,5.20
2020,02,03,12,59,5.20
2020,02,03,13,00,5.20
2020,02,03,13,01,5.30
2020,02,03,13,02,5.30
2020,02,03,13,03,5.30
2020,02,03,13,04,5.40
2020,02,03,13,05,5.50
2020,02,03,13,06,5.60
2020,02,03,13,07,5.80
2020,02,03,13,08,5.90
2020,02,03,13,09,6.00
2020,02,03,13,10,6.00
2020,02,03,13,11,5.90
2020,02,03,13,12,5.80
2020,02,03,13,13,5.70
2020,02,03,13,14,5.60
2020,02,03,13,15,5.50
2020,02,03,13,16,5.40
2020,02,03,13,17,5.30
2020,02,03,13,18,5.20
2020,02,03,13,19,5.10
2020,02,03,13,20,5.00
2020,02,03,13,21,5.00
2020,02,03,13,22,4.90
2020,02,03,13,23,4.90
2020,02,03,13,24,4.80
2020,02,03,13,25,4.80
2020,02,03,13,26,4.80
2020,02,03,13,27,4.70
2020,02,03,13,28,4.70
2020,02,03,13,29,4.70
2020,02,03,13,30,4.70
2020,02,03,13,31,4.70
2020,02,03,13,32,4.70
2020,02,03,13,33,4.80
2020,02,03,13,34,4.80
2020,02,03,13,35,4.80
2020,02,03,13,36,4.70
2020,02,03,13,37,4.70
2020,02,03,13,38,4.70
2020,02,03,13,39,4.60
2020,02,03,13,40,4.60
2020,02,03,13,41,4.50
2020,02,03,13,42,4.50
2020,02,03,13,43,4.40
2020,02,03,13,44,4.40
2020,02,03,13,45,4.50
2020,02,03,13,46,4.50
2020,02,03,13,47,4.60
2020,02,03,13,48,4.70
2020,02,03,13,49,4.70
2020,02,03,13,50,4.80
2020,02,03,13,51,4.80
2020,02,03,13,52,4.80
2020,02,03,13,53,4.80
2020,02,03,13,54,4.70
2020,02,03,13,55,4.70
2020,02,03,13,56,4.60
2020,02,03,13,57,4.60
2020,02,03,13,58,4.60
2020,02,03,13,59,4.60
2020,02,03,14,00,4.50
2020,02,03,14,01,4.50
2020,02,03,14,02,4.50
2020,02,03,14,03,4.50
2020,02,03,14,04,4.50
2020,02,03,14,05,4.50
2020,02,03,14,06,4.60
2020,02,03,14,07,4.60
2020,02,03,14,08,4.70
2020,02,03,14,09,4.70
2020,02,03,14,10,4.70
2020,02,03,14,11,4.70
2020,02,03,14,12,4.70
2020,02,03,14,13,4.70
2020,02,03,14,14,4.70
2020,02,03,14,15,4.70
2020,02,03,14,16,4.70
2020,02,03,14,17,4.60
2020,02,03,14,18,4.60
2020,02,03,14,19,4.70
2020,02,03,14,20,4.70
2020,02,03,14,21,4.80
2020,02,03,14,22,4.80
2020,02,03,14,23,4.80
2020,02,03,14,24,4.80
2020,02,03,14,25,4.80
2020,02,03,14,26,4.70
2020,02,03,14,27,4.70
2020,02,03,14,28,4.60
2020,02,03,14,29,4.60
2020,02,03,14,30,4.60
2020,02,03,14,31,4.70
2020,02,03,14,32,4.70
2020,02,03,14,33,4.70
2020,02,03,14,34,4.70
2020,02,03,14,35,4.70
2020,02,03,14,36,4.70
2020,02,03,14,37,4.70
2020,02,03,14,38,4.70
2020,02,03,14,39,4.70
2020,02,03,14,40,4.70
2020,02,03,14,41,4.70
2020,02,03,14,42,4.80
2020,02,03,14,43,4.80
2020,02,03,14,44,4.80
2020,02,03,14,45,4.80
2020,02,03,14,46,4.80
2020,02,03,14,47,4.70
2020,02,03,14,48,4.70
2020,02,03,14,49,4.80
2020,02,03,14,50,4.80
2020,02,03,14,51,4.80
2020,02,03,14,52,4.80
2020,02,03,14,53,4.70
2020,02,03,14,54,4.70
2020,02,03,14,55,4.70
2020,02,03,14,56,4.60
2020,02,03,14,57,4.60
2020,02,03,14,58,4.50
2020,02,03,14,59,4.50
2020,02,03,15,00,4.40
2020,02,03,15,01,4.40
2020,02,03,15,02,4.40
2020,02,03,15,03,4.40
2020,02,03,15,04,4.30
2020,02,03,15,05,4.30
2020,02,03,15,06,4.30
2020,02,03,15,07,4.30
2020,02,03,15,08,4.30
2020,02,03,15,09,4.40
2020,02,03,15,10,4.40
2020,02,03,15,11,4.40
2020,02,03,15,12,4.40
2020,02,03,15,13,4.50
2020,02,03,15,14,4.50
2020,02,03,15,15,4.50
2020,02,03,15,16,4.50
2020,02,03,15,17,4.50
2020,02,03,15,18,4.40
2020,02,03,15,19,4.40
2020,02,03,15,20,4.40
2020,02,03,15,21,4.50
2020,02,03,15,22,4.50
2020,02,03,15,23,4.50
2020,02,03,15,24,4.50
2020,02,03,15,25,4.60
2020,02,03,15,26,4.60
2020,02,03,15,27,4.50
2020,02,03,15,28,4.50
2020,02,03,15,29,4.50
2020,02,03,15,30,4.50
2020,02,03,15,31,4.50
2020,02,03,15,32,4.50
2020,02,03,15,33,4.50
2020,02,03,15,34,4.60
2020,02,03,15,35,4.60
2020,02,03,15,36,4.60
2020,02,03,15,37,4.70
2020,02,03,15,38,4.70
2020,02,03,15,39,4.70
2020,02,03,15,40,4.70
2020,02,03,15,41,4.70
2020,02,03,15,42,4.70
2020,02,03,15,43,4.70
2020,02,03,15,44,4.70
2020,02,03,15,45,4.70
2020,02,03,15,46,4.70
2020,02,03,15,47,4.70
2020,02,03,15,48,4.70
2020,02,03,15,49,4.70
2020,02,03,15,50,4.70
2020,02,03,15,51,4.70
2020,02,03,15,52,4.70
2020,02,03,15,53,4.70
2020,02,03,15,54,4.70
2020,02,03,15,55,4.70
2020,02,03,15,56,4.80
2020,02,03,15,57,4.80
2020,02,03,15,58,4.80
2020,02,03,15,59,4.80
2020,02,03,16,00,4.80
2020,02,03,16,01,4.80
2020,02,03,16,02,4.80
2020,02,03,16,03,4.80
2020,02,03,16,04,4.80
2020,02,03,16,05,4.80
2020,02,03,16,06,4.80
2020,02,03,16,07,4.80
2020,02,03,16,08,4.80
2020,02,03,16,09,4.70
2020,02,03,16,10,4.70
2020,02,03,16,11,4.70
2020,02,03,16,12,4.70
2020,02,03,16,13,4.60
2020,02,03,16,14,4.60
2020,02,03,16,15,4.60
2020,02,03,16,16,4.50
2020,02,03,16,17,4.50
2020,02,03,16,18,4.40
2020,02,03,16,19,4.40
2020,02,03,16,20,4.40
2020,02,03,16,21,4.40
2020,02,03,16,22,4.40
2020,02,03,16,23,4.30
2020,02,03,16,24,4.30
2020,02,03,16,25,4.30
2020,02,03,16,26,4.30
2020,02,03,16,27,4.30
2020,02,03,16,28,4.30
2020,02,03,16,29,4.30
2020,02,03,16,30,4.30
2020,02,03,16,31,4.30
2020,02,03,16,32,4.20
2020,02,03,16,33,4.20
2020,02,03,16,34,4.20
2020,02,03,16,35,4.20
2020,02,03,16,36,4.20
2020,02,03,16,37,4.10
2020,02,03,16,38,4.10
2020,02,03,16,39,4.10
2020,02,03,16,40,4.10
2020,02,03,16,41,4.00
2020,02,03,16,42,4.00
2020,02,03,16,43,3.90
2020,02,03,16,44,3.90
2020,02,03,16,45,3.90
2020,02,03,16,46,3.80
2020,02,03,16,47,3.80
2020,02,03,16,48,3.80
2020,02,03,16,49,3.80
2020,02,03,16,50,3.70
2020,02,03,16,51,3.70
2020,02,03,16,52,3.70
2020,02,03,16,53,3.70
2020,02,03,16,54,3.60
2020,02,03,16,55,3.60
2020,02,03,16,56,3.60
2020,02,03,16,57,3.60
2020,02,03,16,58,3.60
2020,02,03,16,59,3.50
2020,02,03,17,00,3.50
2020,02,03,17,01,3.50
2020,02,03,17,02,3.50
2020,02,03,17,03,3.40
2020,02,03,17,04,3.40
2020,02,03,17,05,3.40
2020,02,03,17,06,3.40
2020,02,03,17,07,3.40
2020,02,03,17,08,3.30
2020,02,03,17,09,3.30
2020,02,03,17,10,3.30
2020,02,03,17,11,3.30
2020,02,03,17,12,3.30
2020,02,03,17,13,3.30
2020,02,03,17,14,3.30
2020,02,03,17,15,3.20
2020,02,03,17,16,3.20
2020,02,03,17,17,3.20
2020,02,03,17,18,3.20
2020,02,03,17,19,3.20
2020,02,03,17,20,3.10
2020,02,03,17,21,3.10
2020,02,03,17,22,3.10
2020,02,03,17,23,3.10
2020,02,03,17,24,3.10
2020,02,03,17,25,3.00
2020,02,03,17,26,3.00
2020,02,03,17,27,3.00
2020,02,03,17,28,3.00
2020,02,03,17,29,3.00
2020,02,03,17,30,2.90
2020,02,03,17,31,2.90
2020,02,03,17,32,2.90
2020,02,03,17,33,2.90
2020,02,03,17,34,2.80
2020,02,03,17,35,2.80
2020,02,03,17,36,2.80
2020,02,03,17,37,2.80
2020,02,03,17,38,2.80
2020,02,03,17,39,2.80
2020,02,03,17,40,2.80
2020,02,03,17,41,2.80
2020,02,03,17,42,2.80
2020,02,03,17,43,2.70
2020,02,03,17,44,2.70
2020,02,03,17,45,2.70
2020,02,03,17,46,2.70
2020,02,03,17,47,2.70
2020,02,03,17,48,2.70
2020,02,03,17,49,2.70
2020,02,03,17,50,2.70
2020,02,03,17,51,2.60
2020,02,03,17,52,2.60
2020,02,03,17,53,2.60
2020,02,03,17,54,2.60
2020,02,03,17,55,2.50
2020,02,03,17,56,2.50
2020,02,03,17,57,2.50
2020,02,03,17,58,2.40
2020,02,03,17,59,2.40
2020,02,03,18,00,2.40
2020,02,03,18,01,2.40
2020,02,03,18,02,2.40
2020,02,03,18,03,2.30
2020,02,03,18,04,2.30
2020,02,03,18,05,2.30
2020,02,03,18,06,2.30
2020,02,03,18,07,2.30
2020,02,03,18,08,2.20
2020,02,03,18,09,2.20
2020,02,03,18,10,2.20
2020,02,03,18,11,2.20
2020,02,03,18,12,2.20
2020,02,03,18,13,2.20
2020,02,03,18,14,2.20
2020,02,03,18,15,2.10
2020,02,03,18,16,2.10
2020,02,03,18,17,2.10
2020,02,03,18,18,2.10
2020,02,03,18,19,2.10
2020,02,03,18,20,2.10
2020,02,03,18,21,2.00
2020,02,03,18,22,2.00
2020,02,03,18,23,2.00
2020,02,03,18,24,1.90
2020,02,03,18,25,1.90
2020,02,03,18,26,1.90
2020,02,03,18,27,1.80
2020,02,03,18,28,1.80
2020,02,03,18,29,1.80
2020,02,03,18,30,1.80
2020,02,03,18,31,1.70
2020,02,03,18,32,1.70
2020,02,03,18,33,1.70
2020,02,03,18,34,1.70
2020,02,03,18,35,1.70
2020,02,03,18,36,1.70
2020,02,03,18,37,1.70
2020,02,03,18,38,1.70
2020,02,03,18,39,1.70
2020,02,03,18,40,1.60
2020,02,03,18,41,1.60
2020,02,03,18,42,1.60
2020,02,03,18,43,1.50
2020,02,03,18,44,1.50
2020,02,03,18,45,1.40
2020,02,03,18,46,1.40
2020,02,03,18,47,1.40
2020,02,03,18,48,1.30
2020,02,03,18,49,1.30
2020,02,03,18,50,1.30
2020,02,03,18,51,1.30
2020,02,03,18,52,1.20
2020,02,03,18,53,1.20
2020,02,03,18,54,1.20
2020,02,03,18,55,1.20
2020,02,03,18,56,1.10
2020,02,03,18,57,1.10
2020,02,03,18,58,1.10
2020,02,03,18,59,1.00
2020,02,03,19,00,1.00
2020,02,03,19,01,1.00
2020,02,03,19,02,1.00
2020,02,03,19,03,1.00
2020,02,03,19,04,1.00
2020,02,03,19,05,0.90
2020,02,03,19,06,0.90
2020,02,03,19,07,0.90
2020,02,03,19,08,0.90
2020,02,03,19,09,0.90
2020,02,03,19,10,0.80
2020,02,03,19,11,0.80
2020,02,03,19,12,0.80
2020,02,03,19,13,0.80
2020,02,03,19,14,0.80
2020,02,03,19,15,0.80
2020,02,03,19,16,0.80
2020,02,03,19,17,0.70
2020,02,03,19,18,0.70
2020,02,03,19,19,0.70
2020,02,03,19,20,0.70
2020,02,03,19,21,0.60
2020,02,03,19,22,0.60
2020,02,03,19,23,0.60
2020,02,03,19,24,0.60
2020,02,03,19,25,0.50
2020,02,03,19,26,0.50
2020,02,03,19,27,0.50
2020,02,03,19,28,0.50
2020,02,03,19,29,0.50
2020,02,03,19,30,0.40
2020,02,03,19,31,0.40
2020,02,03,19,32,0.40
2020,02,03,19,33,0.40
2020,02,03,19,34,0.40
2020,02,03,19,35,0.40
2020,02,03,19,36,0.40
2020,02,03,19,37,0.40
2020,02,03,19,38,0.40